TimeEDT,TemperatureF,Dew PointF,Humidity,Sea Level PressureIn,VisibilityMPH,Wind Direction,Wind SpeedMPH,Gust SpeedMPH,PrecipitationIn,Events,Conditions,WindDirDegrees,DateUTC
12:53 AM,75.0,71.1,87,29.97,10.0,South,4.6,-,N/A,,Clear,180,2014-06-18 04:53:00
1:53 AM,75.0,70.0,84,29.94,10.0,SSW,6.9,-,N/A,,Clear,200,2014-06-18 05:53:00
2:53 AM,73.9,69.1,85,29.94,10.0,SSW,5.8,-,N/A,,Clear,210,2014-06-18 06:53:00
3:53 AM,73.9,69.1,85,29.95,10.0,SW,9.2,-,N/A,,Clear,220,2014-06-18 07:53:00
4:53 AM,73.9,68.0,82,29.91,10.0,SW,10.4,-,N/A,,Clear,220,2014-06-18 08:53:00
6:53 AM,73.0,69.1,87,29.96,-9999.0,SW,8.1,-,N/A,,Clear,220,2014-06-18 10:53:00
7:53 AM,73.9,69.1,85,29.98,10.0,SSW,6.9,-,N/A,,Clear,200,2014-06-18 11:53:00
8:53 AM,75.0,70.0,84,30.00,10.0,SW,9.2,-,N/A,,Scattered Clouds,220,2014-06-18 12:53:00
9:53 AM,77.0,71.1,82,29.99,10.0,SSW,15.0,20.7,N/A,,Mostly Cloudy,210,2014-06-18 13:53:00
10:53 AM,79.0,72.0,79,29.97,10.0,SW,12.7,-,N/A,,Mostly Cloudy,220,2014-06-18 14:53:00
11:50 AM,80.6,71.6,74,29.99,10.0,SW,11.5,-,N/A,,Mostly Cloudy,220,2014-06-18 15:50:00
11:53 AM,80.1,73.0,79,29.98,10.0,SW,12.7,-,N/A,,Mostly Cloudy,230,2014-06-18 15:53:00
12:06 PM,80.1,72.0,76,29.99,10.0,SSW,12.7,-,N/A,,Mostly Cloudy,210,2014-06-18 16:06:00
12:53 PM,81.0,73.0,77,29.96,10.0,SW,12.7,-,N/A,,Mostly Cloudy,220,2014-06-18 16:53:00
1:53 PM,81.0,72.0,74,29.93,10.0,SW,12.7,-,N/A,,Partly Cloudy,230,2014-06-18 17:53:00
2:53 PM,69.1,64.9,87,30.02,3.0,NNW,31.1,44.9,0.02,Rain-Thunderstorm,Light Thunderstorms and Rain,340,2014-06-18 18:53:00
2:55 PM,68.0,64.0,87,30.03,1.5,NNW,24.2,44.9,0.08,Rain-Thunderstorm,Thunderstorms and Rain,340,2014-06-18 18:55:00
2:58 PM,68.0,64.9,90,30.02,0.5,North,26.5,42.6,0.24,Fog-Rain-Thunderstorm,Heavy Thunderstorms and Rain,360,2014-06-18 18:58:00
3:07 PM,66.9,64.9,93,30.02,1.0,North,13.8,23.0,0.30,Rain-Thunderstorm,Rain,350,2014-06-18 19:07:00
3:14 PM,66.9,64.9,93,29.99,3.0,NNE,12.7,-,0.33,Rain-Thunderstorm,Rain,30,2014-06-18 19:14:00
3:33 PM,68.0,64.9,90,29.96,10.0,ESE,10.4,-,0.33,,Mostly Cloudy,110,2014-06-18 19:33:00
3:53 PM,68.0,66.0,93,29.94,10.0,SE,13.8,-,0.33,Rain-Thunderstorm,Light Rain,140,2014-06-18 19:53:00
4:07 PM,68.0,66.0,93,29.95,10.0,SSE,8.1,-,0.00,,Scattered Clouds,160,2014-06-18 20:07:00
4:23 PM,68.0,66.0,93,29.95,10.0,SSE,4.6,-,0.01,Rain-Thunderstorm,Light Thunderstorms and Rain,160,2014-06-18 20:23:00
4:38 PM,69.1,66.0,90,29.94,10.0,SSW,4.6,-,0.01,,Scattered Clouds,210,2014-06-18 20:38:00
4:53 PM,69.1,66.9,93,29.95,10.0,South,8.1,-,0.01,,Partly Cloudy,180,2014-06-18 20:53:00
5:53 PM,71.1,66.9,87,29.91,10.0,SE,5.8,-,N/A,,Clear,130,2014-06-18 21:53:00
6:53 PM,72.0,68.0,87,29.92,10.0,Calm,Calm,-,N/A,,Clear,0,2014-06-18 22:53:00
7:53 PM,73.0,69.1,87,29.94,10.0,Calm,Calm,-,N/A,,Clear,0,2014-06-18 23:53:00
8:53 PM,72.0,69.1,91,29.97,10.0,Calm,Calm,-,N/A,,Clear,0,2014-06-19 00:53:00
9:24 PM,72.0,69.1,91,29.99,10.0,North,3.5,-,N/A,,Mostly Cloudy,10,2014-06-19 01:24:00
9:49 PM,71.6,69.8,94,29.99,10.0,Calm,Calm,-,N/A,,Mostly Cloudy,0,2014-06-19 01:49:00
9:53 PM,71.1,69.1,93,29.98,10.0,NE,3.5,-,N/A,,Mostly Cloudy,40,2014-06-19 01:53:00
10:53 PM,71.1,69.1,93,29.98,6.0,NNE,8.1,-,0.02,Rain,Light Rain,20,2014-06-19 02:53:00
11:53 PM,70.0,68.0,93,29.98,7.0,Calm,Calm,-,0.00,,Scattered Clouds,0,2014-06-19 03:53:00